CZ-6A DEB

Satellite information

Favourite Embed

Satellite Type and Status

DEBRISIN ORBIT

Key statistics

Satellite CZ-6A DEB at a glance.

Uptime

1129

Days in orbit

Revolutions

≈ 14.1

Per day

Orbit

SSO

Sun Synchronous Orbit

Inclination

98.9

Latest

Satellite identification and parameters

Extended collection of information and parameters for CZ-6A DEB.

Object identification

Identified? True

Debris? True

Object name: CZ-6A DEB

International designator: 2022-151YV

Object number (NORAD): 55547

Object ID (CCSDS): 55547

Country: PEOPLES REPUBLIC OF CHINA (PRC)

Current information (Y/N): Y

RCS size: SMALL

Orbital parameters

Period: 102.109 minutes

Inclination: 98.9005 deg

SMA: 7236.605 km

Apoapsis: 925.102 km

Periapsis: 791.838 km

RAAN: 336.6035 deg

Eccentricy: 0.00920767

Argument of periapsis: 197.1638 deg

Mean anomaly: 162.6413 deg

Mean motion: 14.10264128 rev/day

Mean motion (dot): 0.00007197 rev/day2

B* drag term: 0.0039235707 1/REarth

Two-line elements (TLE)

Creation date: Dec. 11, 2025, 7:14 p.m.

Reference frame: TEME

Reference center: EARTH

Epoch: Dec. 11, 2025, 11:01 a.m. UTC

TLE line 0: 0 CZ-6A DEB

TLE line 1: 1 55547U 22151YV 25345.45954278 .00007197 00000-0 39236-2 0 9999

TLE line 2: 2 55547 98.9005 336.6035 0092077 197.1638 162.6413 14.10264128152285

Live tracking on map

Real-time ground track for satellite CZ-6A DEB.

In-orbit conjunctions

A list of the most updated potential collisions computed for object CZ-6A DEB.

Target Orbit TCA Probability of collision Miss distance Type
METEOR 2-8 DEB LEO 2025-09-12 09:32:47 0.0001241839 234.0 (m) DEBRIS
METEOR 1-5 DEB LEO 2024-10-19 14:59:34 0.0002222296 114.0 (m) DEBRIS

Associated space launch

Chinese satellite reported for atmospheric/ocean/environmental/spatial parameter research purposes, details TBD.

CZ-6A DEB was lifted into orbit during the mission ‘Long March 6A | Yunhai 3’, on board a Long March 6A space rocket.

The launch took place on Nov. 11, 2022, 10:52 p.m. from Launch Complex 9A.

For more information about the launch, click the button.

Launch to space Long March 6A | Yunhai 3
Long March 6A | Yunhai 3

Agency: N/A

Status: Launch Successful

Launch date: Nov. 11, 2022, 10:52 p.m. UTC

Rocket: Long March 6A

Launch pad: Launch Complex 9A

Location: Taiyuan Satellite Launch Center, People's Republic of China

...

Latest news about this satellite

There are no fresh news available about this satellite. Check back as we update our databases every day.


Newsletter sign-up

Weekly statistics, charts and insights to help you stay on top of the space industry.